When you browse on this site, cookies collect data to enhance your experience and personalize the content and advertising you see.
Visit our Privacy Policy to learn more. By continuing to use the site, you agree to this use of cookies and data.
  • In Hungary
  • List of Countries
  • For 7 days
  • Water Temperature
  • Satellite Maps
  • Weather Map
  • News
  • Weather Widgets
  • user-avatar
    Login

    Hourly Weather Paiporta

    Today, 22 January, Tuesday

    Time Temperature Precipitation Wind Pressure Humidity
    00:00 +3°C° 0 mm 4 mps 762 mmHg 63%
    01:00 +3°C° 0 mm 4 mps 762 mmHg 64%
    02:00 +3°C° 0 mm 4 mps 762 mmHg 65%
    03:00 +1°C° 0 mm 4 mps 762 mmHg 66%
    04:00 +2°C° 0 mm 3 mps 761 mmHg 66%
    05:00 +2°C° 0 mm 3 mps 761 mmHg 66%
    06:00 +1°C° 0 mm 3 mps 761 mmHg 65%
    07:00 +3°C° 0 mm 4 mps 761 mmHg 60%
    08:00 +4°C° 0 mm 4 mps 761 mmHg 54%
    09:00 +6°C° 0 mm 4 mps 761 mmHg 48%
    10:00 +8°C° 0 mm 5 mps 760 mmHg 44%
    11:00 +10°C° 0 mm 5 mps 759 mmHg 39%
    12:00 +13°C° 0 mm 6 mps 759 mmHg 35%
    13:00 +14°C° 0 mm 6 mps 758 mmHg 35%
    14:00 +14°C° 0 mm 6 mps 757 mmHg 35%
    15:00 +15°C° 0 mm 6 mps 756 mmHg 36%
    16:00 +13°C° 0.1 mm 6 mps 756 mmHg 42%
    17:00 +11°C° 0.1 mm 7 mps 756 mmHg 48%
    18:00 +10°C° 0.1 mm 7 mps 756 mmHg 54%
    19:00 +9°C° 0.1 mm 7 mps 756 mmHg 57%
    20:00 +9°C° 0.1 mm 6 mps 756 mmHg 60%
    21:00 +8°C° 0.1 mm 5 mps 756 mmHg 64%
    22:00 +8°C° 0 mm 6 mps 756 mmHg 60%
    23:00 +8°C° 0 mm 6 mps 756 mmHg 57%

    Tomorrow, 23 January, Wednesday

    Time Temperature Precipitation Wind Pressure Humidity
    00:00 +8°C° 0 mm 7 mps 756 mmHg 54%
    01:00 +7°C° 0 mm 8 mps 756 mmHg 54%
    02:00 +7°C° 0 mm 8 mps 755 mmHg 55%
    03:00 +6°C° 0 mm 9 mps 755 mmHg 55%
    04:00 +6°C° 0 mm 9 mps 755 mmHg 57%
    05:00 +6°C° 0 mm 9 mps 754 mmHg 58%
    06:00 +6°C° 0 mm 9 mps 754 mmHg 59%
    07:00 +7°C° 0 mm 11 mps 753 mmHg 57%
    08:00 +8°C° 0 mm 12 mps 753 mmHg 54%
    09:00 +10°C° 0 mm 14 mps 752 mmHg 51%
    10:00 +13°C° 0 mm 14 mps 752 mmHg 46%
    11:00 +15°C° 0 mm 13 mps 751 mmHg 41%
    12:00 +18°C° 0 mm 13 mps 751 mmHg 36%
    13:00 +18°C° 0 mm 12 mps 750 mmHg 36%
    14:00 +18°C° 0 mm 11 mps 750 mmHg 36%
    15:00 +18°C° 0 mm 10 mps 750 mmHg 36%
    16:00 +16°C° 0 mm 8 mps 750 mmHg 40%
    17:00 +15°C° 0 mm 6 mps 750 mmHg 44%
    18:00 +13°C° 0 mm 4 mps 751 mmHg 49%
    19:00 +12°C° 0 mm 5 mps 751 mmHg 49%
    20:00 +12°C° 0 mm 5 mps 751 mmHg 48%
    21:00 +10°C° 0 mm 5 mps 752 mmHg 48%
    22:00 +11°C° 0 mm 4 mps 752 mmHg 51%
    23:00 +10°C° 0 mm 4 mps 752 mmHg 54%

    Day after tomorrow, 24 January, Thursday

    Time Temperature Precipitation Wind Pressure Humidity
    00:00 +10°C° 0 mm 4 mps 752 mmHg 57%
    01:00 +10°C° 0 mm 4 mps 753 mmHg 57%
    02:00 +8°C° 0 mm 4 mps 753 mmHg 57%
    03:00 +8°C° 0 mm 4 mps 753 mmHg 57%
    04:00 +7°C° 0 mm 4 mps 754 mmHg 54%
    05:00 +7°C° 0 mm 4 mps 754 mmHg 52%
    06:00 +6°C° 0 mm 4 mps 754 mmHg 49%
    07:00 +7°C° 0 mm 5 mps 755 mmHg 44%
    08:00 +7°C° 0 mm 6 mps 756 mmHg 40%
    09:00 +6°C° 0 mm 7 mps 756 mmHg 35%
    10:00 +7°C° 0 mm 8 mps 756 mmHg 30%
    11:00 +10°C° 0 mm 9 mps 756 mmHg 25%
    12:00 +11°C° 0 mm 10 mps 757 mmHg 20%
    13:00 +11°C° 0 mm 10 mps 757 mmHg 21%
    14:00 +11°C° 0 mm 10 mps 756 mmHg 21%
    15:00 +11°C° 0 mm 10 mps 756 mmHg 22%
    16:00 +8°C° 0 mm 9 mps 757 mmHg 25%
    17:00 +8°C° 0 mm 7 mps 757 mmHg 28%
    18:00 +5°C° 0 mm 6 mps 758 mmHg 31%
    19:00 +5°C° 0 mm 5 mps 759 mmHg 34%
    20:00 +5°C° 0 mm 4 mps 759 mmHg 37%
    21:00 +4°C° 0 mm 4 mps 760 mmHg 41%
    22:00 +3°C° 0 mm 4 mps 761 mmHg 43%
    23:00 +3°C° 0 mm 3 mps 761 mmHg 46%

    25 January, Friday

    Time Temperature Precipitation Wind Pressure Humidity
    00:00 +2°C° 0 mm 3 mps 761 mmHg 49%
    01:00 +2°C° 0 mm 3 mps 761 mmHg 50%
    02:00 +2°C° 0 mm 3 mps 761 mmHg 51%
    03:00 +2°C° 0 mm 3 mps 761 mmHg 52%
    04:00 +2°C° 0 mm 3 mps 761 mmHg 54%
    05:00 +2°C° 0 mm 3 mps 761 mmHg 56%
    06:00 +2°C° 0 mm 3 mps 761 mmHg 58%
    07:00 +4°C° 0 mm 3 mps 762 mmHg 57%
    08:00 +5°C° 0 mm 3 mps 762 mmHg 56%
    09:00 +8°C° 0 mm 3 mps 762 mmHg 56%
    10:00 +11°C° 0 mm 3 mps 762 mmHg 51%
    11:00 +15°C° 0 mm 2 mps 762 mmHg 47%
    12:00 +18°C° 0 mm 2 mps 761 mmHg 42%
    13:00 +18°C° 0 mm 3 mps 761 mmHg 42%
    14:00 +18°C° 0 mm 3 mps 761 mmHg 42%
    15:00 +18°C° 0 mm 3 mps 760 mmHg 41%
    16:00 +16°C° 0 mm 3 mps 761 mmHg 48%
    17:00 +14°C° 0 mm 2 mps 761 mmHg 54%
    18:00 +12°C° 0 mm 2 mps 761 mmHg 61%
    19:00 +12°C° 0 mm 2 mps 762 mmHg 63%
    20:00 +10°C° 0 mm 3 mps 762 mmHg 66%
    21:00 +9°C° 0 mm 3 mps 763 mmHg 68%
    22:00 +9°C° 0 mm 3 mps 763 mmHg 69%
    23:00 +9°C° 0 mm 3 mps 763 mmHg 69%

    26 January, Saturday

    Time Temperature Precipitation Wind Pressure Humidity
    00:00 +7°C° 0 mm 4 mps 763 mmHg 70%
    01:00 +7°C° 0 mm 4 mps 763 mmHg 70%
    02:00 +8°C° 0 mm 3 mps 763 mmHg 70%
    03:00 +7°C° 0 mm 3 mps 763 mmHg 71%
    04:00 +7°C° 0 mm 3 mps 763 mmHg 71%
    05:00 +7°C° 0 mm 3 mps 763 mmHg 71%
    06:00 +5°C° 0 mm 3 mps 763 mmHg 71%
    07:00 +8°C° 0 mm 3 mps 763 mmHg 66%
    08:00 +9°C° 0 mm 3 mps 763 mmHg 61%
    09:00 +10°C° 0 mm 3 mps 763 mmHg 57%
    10:00 +12°C° 0 mm 3 mps 762 mmHg 49%
    11:00 +16°C° 0 mm 3 mps 762 mmHg 42%
    12:00 +18°C° 0 mm 3 mps 761 mmHg 34%
    13:00 +19°C° 0 mm 3 mps 761 mmHg 34%
    14:00 +19°C° 0 mm 4 mps 760 mmHg 33%
    15:00 +20°C° 0 mm 4 mps 759 mmHg 33%
    16:00 +17°C° 0 mm 5 mps 759 mmHg 37%
    17:00 +16°C° 0 mm 5 mps 759 mmHg 42%
    18:00 +14°C° 0 mm 5 mps 759 mmHg 46%
    19:00 +13°C° 0 mm 5 mps 759 mmHg 47%
    20:00 +13°C° 0 mm 6 mps 759 mmHg 47%
    21:00 +13°C° 0 mm 6 mps 760 mmHg 47%
    22:00 +12°C° 0 mm 5 mps 760 mmHg 50%
    23:00 +11°C° 0 mm 4 mps 760 mmHg 53%

    27 January, Sunday

    Time Temperature Precipitation Wind Pressure Humidity
    00:00 +10°C° 0 mm 4 mps 760 mmHg 56%
    01:00 +10°C° 0 mm 4 mps 760 mmHg 58%
    02:00 +8°C° 0 mm 4 mps 760 mmHg 60%
    03:00 +8°C° 0 mm 4 mps 760 mmHg 62%
    04:00 +8°C° 0 mm 4 mps 760 mmHg 61%
    05:00 +7°C° 0 mm 5 mps 760 mmHg 60%
    06:00 +7°C° 0 mm 5 mps 760 mmHg 59%
    07:00 +8°C° 0 mm 5 mps 760 mmHg 55%
    08:00 +8°C° 0 mm 5 mps 761 mmHg 51%
    09:00 +9°C° 0 mm 5 mps 761 mmHg 47%
    10:00 +10°C° 0 mm 5 mps 761 mmHg 42%
    11:00 +13°C° 0 mm 5 mps 761 mmHg 38%
    12:00 +14°C° 0 mm 4 mps 760 mmHg 33%
    13:00 +15°C° 0 mm 5 mps 760 mmHg 33%
    14:00 +15°C° 0 mm 6 mps 760 mmHg 33%
    15:00 +15°C° 0 mm 7 mps 759 mmHg 33%
    16:00 +14°C° 0 mm 6 mps 759 mmHg 36%
    17:00 +12°C° 0 mm 5 mps 760 mmHg 39%
    18:00 +11°C° 0 mm 4 mps 760 mmHg 42%
    19:00 +9°C° 0 mm 5 mps 760 mmHg 44%
    20:00 +9°C° 0 mm 6 mps 761 mmHg 46%
    21:00 +9°C° 0 mm 6 mps 761 mmHg 48%
    22:00 +9°C° 0 mm 7 mps 760 mmHg 48%
    23:00 +9°C° 0 mm 7 mps 760 mmHg 47%
    Show more